[[{"header":{"parameterUnit":"m.s-1","parameterCategory":1,"la1":30.2992,"la2":30.254,"lo1":-89.0895,"lo2":-89.0443,"dy":0.0025,"dx":0.0025,"nx":19,"ny":19,"refTime":"2026-05-04T09:00:00:Z","depth":0,"parameterNumber":2,"parameterNumberName":"U-component_of_WINDS"},"data":[0,0,0,0.8258,0.8259,0.8243,0.8243,0.825,0.825,0,0,0,0,0,0,0,0,0,0,0,0.8278,0.8278,0.8258,0.8259,0.8243,0.8243,0.825,0.825,0,0,0,0,0,0,0,0,0,0,0,0.8278,0.8278,0.8279,0.8259,0.8243,0.8243,0.825,0.8252,0,0,0,0,0,0,0,0,0,0,0.8262,0.8294,0.8278,0.8279,0.8259,0.8243,0.8243,0.8252,0.8252,0.8268,0,0.8285,0,0.8268,0.8252,0.8252,0,0,0,0.8248,0.8294,0.8277,0.8279,0.8259,0.8244,0.8247,0.8252,0.8252,0.8268,0.8284,0.8284,0.8268,0.8252,0.8253,0.838,0.8381,0,0,0.8248,0.8283,0.8277,0.8278,0.8281,0.8248,0.8247,0.8251,0.8272,0.8284,0.8284,0.8268,0.8253,0.8253,0.8378,0.838,0,0,0,0.8258,0.8284,0.8266,0.8278,0.8274,0.8248,0.8246,0.8272,0.8263,0.8284,0.8268,0.8253,0.8253,0.8377,0.8379,0.847,0,0,0,0.8258,0.829,0.8267,0.8288,0.8274,0.8272,0.8267,0.8263,0.8262,0.8268,0.8253,0.8253,0.8376,0.8378,0.8464,0.8507,0,0,0,0.8274,0.8291,0.8294,0.829,0.8285,0.8271,0.8262,0.8261,0.8253,0.8252,0.8253,0.8375,0.8378,0.846,0.8499,0.8553,0,0,0,0.83,0.8373,0.8296,0.8372,0.8285,0.8327,0.8262,0.8291,0.8301,0.8253,0.8376,0.8379,0.8458,0.8495,0.8548,0.8607,0.8633,0,0,0.8412,0.8388,0.843,0.836,0.8425,0.8326,0.8404,0.838,0.8347,0.8371,0.8374,0.8466,0.8499,0.8552,0.8766,0.8788,0,0,0,0.8477,0.8508,0.8517,0.8529,0.8512,0.8503,0.8463,0.8454,0.8473,0.8366,0.8497,0.8516,0.8546,0.8572,0.859,0.8615,0.8392,0.8391,0.8391,0.8687,0.8642,0.8709,0.8664,0.8675,0.8635,0.8641,0.8623,0.8572,0.8605,0.8612,0.8748,0.878,0.8793,0.882,0.8637,0.8637,0.8637,0.8638,0.8849,0.8887,0.882,0.8862,0.8815,0.8849,0.8813,0.8777,0.8804,0.8737,0.8762,0.8696,0.8818,0.8839,0.8644,0.8643,0.8642,0.8642,0.8641,0.8983,0.8994,0.8982,0.8996,0.9011,0.8962,0.8991,0.8946,0.8904,0.8928,0.8933,0.8931,0.8927,0.8933,0.8933,0.8934,0.8934,0.8934,0.8935,0.9129,0.9112,0.9142,0.9133,0.9135,0.9133,0.9094,0.9095,0.9086,0.9051,0.9051,0.9001,0.8837,0.8799,0.8942,0.8941,0.894,0.8939,0.8939,0.9315,0.9266,0.9313,0.9316,0.9301,0.9322,0.9263,0.9271,0.9266,0.9283,0.9227,0.9112,0.9084,0.907,0.9038,0.9234,0.9234,0.9234,0.9234,0.9431,0.9412,0.9451,0.9459,0.9462,0.9414,0.9471,0.9442,0.9404,0.9399,0.9363,0.9316,0.9303,0.9283,0.9264,0.9234,0.9475,0.9476,0.9476,0.9544,0.9524,0.958,0.9542,0.9528,0.9518,0.9571,0.9584,0.953,0.9485,0.9395,0.9384,0.9308,0.9285,0.9239,0.921,0.9153,0,0]},{"header":{"parameterUnit":"m.s-1","parameterCategory":1,"la1":30.2992,"la2":30.254,"lo1":-89.0895,"lo2":-89.0443,"dy":0.0025,"dx":0.0025,"nx":19,"ny":19,"refTime":"2026-05-04T09:00:00:Z","depth":0,"parameterNumber":3,"parameterNumberName":"V-component_of_WINDS"},"data":[0,0,0,-1.7077,-1.7079,-1.7171,-1.7171,-1.7292,-1.7293,0,0,0,0,0,0,0,0,0,0,0,-1.705,-1.7051,-1.7076,-1.7079,-1.7171,-1.7171,-1.7292,-1.7293,0,0,0,0,0,0,0,0,0,0,0,-1.705,-1.7051,-1.7052,-1.7079,-1.7171,-1.7171,-1.7292,-1.7221,0,0,0,0,0,0,0,0,0,0,-1.7131,-1.7107,-1.705,-1.7052,-1.708,-1.7171,-1.7171,-1.7218,-1.7226,-1.7251,0,-1.7274,0,-1.7285,-1.7301,-1.7302,0,0,0,-1.7078,-1.7101,-1.7125,-1.7052,-1.708,-1.7171,-1.7129,-1.7222,-1.7231,-1.7262,-1.7275,-1.728,-1.7287,-1.7302,-1.7303,-1.7451,-1.7452,0,0,-1.7073,-1.7067,-1.7119,-1.7131,-1.7116,-1.7126,-1.7132,-1.7227,-1.7242,-1.7276,-1.7283,-1.7289,-1.7303,-1.7304,-1.7451,-1.7451,0,0,0,-1.7059,-1.7064,-1.7085,-1.7126,-1.7142,-1.7129,-1.7136,-1.7238,-1.7245,-1.7284,-1.7291,-1.7304,-1.7305,-1.745,-1.7451,-1.7481,0,0,0,-1.7056,-1.7055,-1.7083,-1.7081,-1.714,-1.7191,-1.7144,-1.7239,-1.725,-1.729,-1.7304,-1.7306,-1.7449,-1.745,-1.7478,-1.7496,0,0,0,-1.7044,-1.7054,-1.7068,-1.708,-1.7119,-1.719,-1.7203,-1.7241,-1.7254,-1.7302,-1.7307,-1.7449,-1.745,-1.7476,-1.7492,-1.7534,0,0,0,-1.703,-1.7093,-1.7068,-1.7141,-1.7119,-1.7207,-1.7202,-1.7268,-1.7313,-1.7304,-1.7449,-1.7451,-1.7475,-1.749,-1.7531,-1.7568,-1.7582,0,0,-1.7106,-1.7102,-1.7145,-1.7126,-1.7217,-1.7193,-1.729,-1.7336,-1.7346,-1.7416,-1.742,-1.7479,-1.7492,-1.7533,-1.7665,-1.7676,0,0,0,-1.7168,-1.7199,-1.7224,-1.7266,-1.7303,-1.7337,-1.7369,-1.7386,-1.7446,-1.7381,-1.7505,-1.7513,-1.7538,-1.7555,-1.7565,-1.7587,-1.7459,-1.7458,-1.7458,-1.7267,-1.7277,-1.735,-1.7371,-1.7412,-1.7445,-1.7479,-1.7509,-1.7506,-1.7536,-1.7556,-1.7635,-1.7655,-1.7663,-1.7685,-1.7576,-1.7576,-1.7576,-1.7576,-1.7381,-1.7427,-1.7422,-1.7492,-1.7502,-1.7561,-1.7595,-1.7592,-1.7649,-1.762,-1.7642,-1.761,-1.7675,-1.7695,-1.7579,-1.7578,-1.7578,-1.7578,-1.7578,-1.7447,-1.7471,-1.7491,-1.7553,-1.76,-1.762,-1.7674,-1.7682,-1.7689,-1.7711,-1.7734,-1.7734,-1.7735,-1.7721,-1.7722,-1.7722,-1.7722,-1.7722,-1.7722,-1.7508,-1.753,-1.7575,-1.762,-1.7648,-1.7687,-1.7721,-1.775,-1.7783,-1.7784,-1.7785,-1.778,-1.7679,-1.7654,-1.7727,-1.7726,-1.7725,-1.7725,-1.7725,-1.762,-1.7596,-1.7665,-1.7694,-1.7748,-1.7795,-1.7804,-1.7861,-1.7886,-1.7913,-1.7904,-1.7828,-1.7824,-1.7817,-1.7796,-1.7901,-1.7901,-1.7901,-1.7901,-1.7676,-1.7675,-1.7748,-1.7793,-1.7839,-1.7854,-1.7933,-1.7962,-1.7987,-1.8003,-1.7989,-1.7962,-1.7954,-1.7955,-1.7944,-1.7925,-1.8061,-1.8061,-1.8061,-1.7746,-1.775,-1.7815,-1.7839,-1.7882,-1.7919,-1.7995,-1.8048,-1.8072,-1.8068,-1.8016,-1.8009,-1.7966,-1.7951,-1.7946,-1.7929,-1.7894,0,0]}]]